KC8YVF-1 Weather Reports


Display with metric or nautical units.
time (UTC)temp
F
wind
direction
speed
MPH
gust
MPH
rain 1hr
in
rain 24hr
in
rain mn
in
humidity
%
barometer
mb
20200225101839 33 23 0.0 0.0 0.00 0.00 0.00 80 998.9
20200225101729 33 45 0.0 0.0 0.00 0.00 0.00 80 998.9
20200225101229 33 45 0.0 0.0 0.00 0.00 0.00 80 998.9
20200225100729 33 23 0.0 0.0 0.00 0.00 0.00 80 998.9
20200225100340 33 45 0.0 0.0 0.00 0.00 0.00 80 998.8
20200225100229 33 45 0.0 0.0 0.00 0.00 0.00 80 998.7
20200225095730 33 23 0.0 0.0 0.00 0.00 0.00 80 998.9
20200225094840 33 45 0.0 0.0 0.00 0.00 0.00 80 998.7
20200225094229 33 45 0.0 0.0 0.00 0.00 0.00 80 998.8
20200225093729 33 90 0.0 0.0 0.00 0.00 0.00 80 998.8
20200225093339 33 0 0.0 0.0 0.00 0.00 0.00 80 998.6
20200225093230 33 0 0.0 0.0 0.00 0.00 0.00 80 998.6
20200225092230 33 68 0.0 0.0 0.00 0.00 0.00 80 998.8
20200225091729 33 113 0.0 0.0 0.00 0.00 0.00 80 998.6
20200225091230 33 45 0.0 0.0 0.00 0.00 0.00 80 998.6
20200225090729 33 45 0.0 0.0 0.00 0.00 0.00 80 998.9
20200225090339 33 90 0.0 0.0 0.00 0.00 0.00 80 998.9
20200225090230 33 45 0.0 0.0 0.00 0.00 0.00 80 998.9
20200225085729 33 90 0.0 0.0 0.00 0.00 0.00 80 998.9
20200225085229 33 45 0.0 0.0 0.00 0.00 0.00 79 998.9
20200225084840 33 90 1.0 1.0 0.00 0.00 0.00 79 998.8
20200225084730 33 45 0.0 2.0 0.00 0.00 0.00 79 998.8
20200225084230 34 45 0.0 0.0 0.00 0.00 0.00 79 998.7
20200225083728 34 45 0.0 0.0 0.00 0.00 0.00 78 998.6
20200225083339 34 45 2.0 7.0 0.00 0.00 0.00 78 998.9
20200225082729 34 23 0.0 0.0 0.00 0.00 0.00 78 998.9
20200225082229 34 45 0.0 0.0 0.00 0.00 0.00 77 998.6
20200225081839 34 68 0.0 0.0 0.00 0.00 0.00 77 998.6
20200225080729 34 0 0.0 0.0 0.00 0.00 0.00 76 998.9
20200225080339 34 23 0.0 0.0 0.00 0.00 0.00 76 998.9
20200225080229 34 23 0.0 0.0 0.00 0.00 0.00 76 998.9
20200225075728 34 23 0.0 0.0 0.00 0.00 0.00 75 998.9
20200225075229 34 0 0.0 0.0 0.00 0.00 0.00 75 998.9
20200225074839 34 23 0.0 0.0 0.00 0.00 0.00 75 998.9
20200225074728 34 0 0.0 0.0 0.00 0.00 0.00 75 998.9
20200225074229 34 23 0.0 0.0 0.00 0.00 0.00 75 998.9
20200225073728 34 23 0.0 0.0 0.00 0.00 0.00 75 998.9
20200225073338 35 23 0.0 0.0 0.00 0.00 0.00 75 998.9
20200225073228 35 23 0.0 0.0 0.00 0.00 0.00 74 998.9
20200225072729 35 23 0.0 0.0 0.00 0.00 0.00 74 998.8
20200225072229 35 0 0.0 0.0 0.00 0.00 0.00 74 998.9
20200225071838 35 0 0.0 0.0 0.00 0.00 0.00 74 998.6
20200225071729 35 0 0.0 0.0 0.00 0.00 0.00 74 998.8
20200225071228 35 23 0.0 0.0 0.00 0.00 0.00 74 998.7
20200225070340 35 23 0.0 0.0 0.00 0.00 0.00 73 998.9
20200225065729 35 0 0.0 0.0 0.00 0.00 0.00 73 998.9
20200225065229 35 23 0.0 0.0 0.00 0.00 0.00 73 999.0
20200225064837 35 23 0.0 0.0 0.00 0.00 0.00 73 998.9
20200225064729 35 23 0.0 0.0 0.00 0.00 0.00 73 998.9
20200225064228 35 23 0.0 0.0 0.00 0.00 0.00 73 998.9
20200225063728 35 45 0.0 0.0 0.00 0.00 0.00 73 998.9
20200225063339 35 45 0.0 0.0 0.00 0.00 0.00 73 998.9
20200225063228 35 45 0.0 0.0 0.00 0.00 0.00 73 998.9
20200225062728 35 0 0.0 0.0 0.00 0.00 0.00 73 998.9
20200225062227 35 0 0.0 0.0 0.00 0.00 0.00 73 998.9
20200225061838 35 23 0.0 0.0 0.00 0.00 0.00 73 998.9
20200225061727 35 0 0.0 0.0 0.00 0.00 0.00 73 998.9
20200225061228 35 45 0.0 0.0 0.00 0.00 0.00 73 998.9
20200225060730 35 45 0.0 0.0 0.00 0.00 0.00 73 998.9
20200225060339 36 23 0.0 0.0 0.00 0.00 0.00 73 998.9
20200225054839 36 45 0.0 0.0 0.00 0.00 0.00 73 998.6
20200225054728 36 45 0.0 0.0 0.00 0.00 0.00 73 998.6
20200225054229 36 68 0.0 0.0 0.00 0.00 0.00 73 998.6
20200225053338 35 45 0.0 0.0 0.00 0.00 0.00 73 998.6
20200225052727 35 45 0.0 0.0 0.00 0.00 0.00 74 998.7
20200225052234 35 0 0.0 0.0 0.00 0.00 0.00 74 998.6
20200225051838 35 0 0.0 0.0 0.00 0.00 0.00 74 998.6
20200225051727 35 0 0.0 0.0 0.00 0.00 0.00 74 998.4
20200225051233 35 68 0.0 0.0 0.00 0.00 0.00 74 998.3
20200225050729 35 45 0.0 0.0 0.00 0.00 0.00 74 998.6
20200225050337 35 68 0.0 0.0 0.00 0.00 0.00 74 998.6
20200225050229 35 68 0.0 0.0 0.00 0.00 0.00 74 998.6
20200225045728 35 45 0.0 0.0 0.00 0.00 0.00 74 998.3
20200225045227 35 23 0.0 0.0 0.00 0.00 0.00 74 998.5
20200225044837 35 45 0.0 0.0 0.00 0.00 0.00 74 998.6
20200225044728 35 45 0.0 0.0 0.00 0.00 0.00 74 998.6
20200225044228 35 45 0.0 0.0 0.00 0.00 0.00 75 998.6
20200225043728 35 23 0.0 0.0 0.00 0.00 0.00 75 998.6
20200225043338 35 68 0.0 0.0 0.00 0.00 0.00 75 998.6
20200225042727 35 45 0.0 0.0 0.00 0.00 0.00 75 998.9
20200225041838 35 45 0.0 0.0 0.00 0.00 0.00 75 998.9
20200225041727 35 45 0.0 0.0 0.00 0.00 0.00 75 998.9
20200225041228 35 45 0.0 0.0 0.00 0.00 0.00 75 998.9
20200225040728 35 68 0.0 0.0 0.00 0.00 0.00 75 999.3
20200225040337 35 45 0.0 0.0 0.00 0.00 0.00 75 999.2
20200225035728 35 45 0.0 0.0 0.00 0.00 0.00 75 998.9
20200225034838 35 45 0.0 0.0 0.00 0.00 0.00 75 999.2
20200225034727 35 23 0.0 0.0 0.00 0.00 0.00 75 999.2
20200225034227 35 68 0.0 0.0 0.00 0.00 0.00 75 999.0
20200225033338 36 68 0.0 0.0 0.00 0.00 0.00 74 998.9
20200225033228 36 45 0.0 0.0 0.00 0.00 0.00 74 998.9
20200225032727 36 45 0.0 0.0 0.00 0.00 0.00 74 998.9
20200225031838 36 23 0.0 0.0 0.00 0.00 0.00 74 999.0
20200225031727 36 23 0.0 0.0 0.00 0.00 0.00 74 999.1
20200225031227 36 45 1.0 5.0 0.00 0.00 0.00 74 998.9
20200225030336 36 23 0.0 0.0 0.00 0.00 0.00 74 999.2
20200225030227 36 23 0.0 0.0 0.00 0.00 0.00 74 999.3
20200225025726 36 23 0.0 0.0 0.00 0.00 0.00 74 999.0
20200225025228 36 45 0.0 0.0 0.00 0.00 0.00 74 999.3
20200225024836 36 68 0.0 0.0 0.00 0.00 0.00 74 999.0
20200225024728 36 68 0.0 0.0 0.00 0.00 0.00 74 999.0
20200225023336 36 68 0.0 0.0 0.00 0.00 0.00 74 998.9
20200225023227 36 68 0.0 0.0 0.00 0.00 0.00 74 998.9
20200225022227 36 113 0.0 0.0 0.00 0.00 0.00 74 998.9
20200225021837 36 113 0.0 0.0 0.00 0.00 0.00 74 998.9
20200225021726 36 113 0.0 0.0 0.00 0.00 0.00 74 998.9
20200225021227 36 113 0.0 0.0 0.00 0.00 0.00 74 998.7
20200225020336 37 113 0.0 0.0 0.00 0.00 0.00 74 998.9
20200225020227 37 113 0.0 0.0 0.00 0.00 0.00 74 998.9
20200225015726 37 113 0.0 0.0 0.00 0.00 0.00 74 998.9
20200225015227 37 45 0.0 0.0 0.00 0.00 0.00 73 998.9
20200225014836 37 68 0.0 0.0 0.00 0.00 0.00 73 998.9
20200225014727 37 68 0.0 0.0 0.00 0.00 0.00 73 998.9
20200225014227 37 68 0.0 0.0 0.00 0.00 0.00 73 998.9
20200225013727 37 68 0.0 0.0 0.00 0.00 0.00 73 998.9
20200225013337 37 68 0.0 0.0 0.00 0.00 0.00 73 998.6
20200225013226 37 68 0.0 0.0 0.00 0.00 0.00 73 998.7
20200225011835 37 45 0.0 0.0 0.00 0.00 0.00 73 998.6
20200225011726 37 45 0.0 0.0 0.00 0.00 0.00 73 998.6
20200225010336 37 23 0.0 0.0 0.00 0.00 0.00 73 998.6
20200225010227 37 90 0.0 0.0 0.00 0.00 0.00 73 998.6
20200225005727 37 113 0.0 0.0 0.00 0.00 0.00 72 998.6
20200225005227 38 113 0.0 0.0 0.00 0.00 0.00 72 998.6
20200225004837 38 23 0.0 0.0 0.00 0.00 0.00 72 998.6
20200225004726 38 113 0.0 0.0 0.00 0.00 0.00 72 998.6
20200225003727 38 0 0.0 0.0 0.00 0.00 0.00 71 998.6
20200225003337 38 90 0.0 0.0 0.00 0.00 0.00 71 998.6
20200225002727 38 45 0.0 0.0 0.00 0.00 0.00 71 998.6
20200225002227 38 113 0.0 0.0 0.00 0.00 0.00 71 998.6
20200225001837 38 68 0.0 0.0 0.00 0.00 0.00 71 998.6
20200225001726 38 68 0.0 0.0 0.00 0.00 0.00 71 998.6
20200225000727 38 68 0.0 0.0 0.00 0.00 0.00 70 998.6
20200225000335 38 23 0.0 0.0 0.00 0.00 0.00 70 998.3
20200224235727 38 23 0.0 0.0 0.00 0.00 0.00 70 998.4
20200224235226 38 23 0.0 0.0 0.00 0.00 0.00 70 998.3
20200224234837 38 45 0.0 0.0 0.00 0.00 0.00 69 998.3
20200224234726 38 45 0.0 0.0 0.00 0.00 0.00 69 998.3
20200224234226 38 23 0.0 0.0 0.00 0.00 0.00 69 998.3
20200224233727 39 45 0.0 0.0 0.00 0.00 0.00 69 997.9
20200224233336 39 23 0.0 0.0 0.00 0.00 0.00 69 997.9
20200224232727 39 0 0.0 0.0 0.00 0.00 0.00 68 997.9
20200224232227 39 0 0.0 0.0 0.00 0.00 0.00 68 998.1
20200224231837 39 23 0.0 0.0 0.00 0.00 0.00 68 997.9
20200224231726 39 23 0.0 0.0 0.00 0.00 0.00 68 997.9
20200224230727 40 23 0.0 0.0 0.00 0.00 0.00 68 997.9
20200224230336 40 23 0.0 0.0 0.00 0.00 0.00 68 998.3
20200224225727 40 23 0.0 0.0 0.00 0.00 0.00 67 998.3
20200224225226 40 23 0.0 0.0 0.00 0.00 0.00 67 998.2
20200224224837 40 23 0.0 0.0 0.00 0.00 0.00 67 997.9
20200224224726 40 23 0.0 0.0 0.00 0.00 0.00 67 997.9
20200224224227 40 45 0.0 0.0 0.00 0.00 0.00 67 997.8
20200224223337 40 45 0.0 0.0 0.00 0.00 0.00 67 997.9
20200224222726 41 68 0.0 0.0 0.00 0.00 0.00 67 997.9
20200224222226 41 68 0.0 0.0 0.00 0.00 0.00 66 997.9
20200224221836 41 68 0.0 0.0 0.00 0.00 0.00 66 997.9
20200224220726 41 90 0.0 0.0 0.00 0.00 0.00 65 998.0
20200224220338 41 90 0.0 0.0 0.00 0.00 0.00 65 998.2
20200224214837 41 68 0.0 0.0 0.00 0.00 0.00 65 998.3
20200224214226 41 0 0.0 0.0 0.00 0.00 0.00 65 998.3
20200224213726 41 0 0.0 0.0 0.00 0.00 0.00 65 998.3
20200224213336 41 0 0.0 0.0 0.00 0.00 0.00 65 998.3
20200224212727 41 0 0.0 0.0 0.00 0.00 0.00 65 998.3
20200224211836 41 23 0.0 0.0 0.00 0.00 0.00 64 998.3
20200224211228 41 0 0.0 0.0 0.00 0.00 0.00 64 997.9
20200224210726 41 0 0.0 0.0 0.00 0.00 0.00 64 997.7
20200224210336 41 68 0.0 0.0 0.00 0.00 0.00 64 997.6
20200224205727 42 68 0.0 0.0 0.00 0.00 0.00 64 997.5
20200224205227 42 23 0.0 0.0 0.00 0.00 0.00 63 997.6
20200224204837 42 0 0.0 0.0 0.00 0.00 0.00 63 997.6
20200224204227 42 0 0.0 0.0 0.00 0.00 0.00 63 997.5
20200224203727 42 0 0.0 0.0 0.00 0.00 0.00 63 997.6
20200224203337 42 0 0.0 0.0 0.00 0.00 0.00 63 997.6
20200224202727 42 23 0.0 0.0 0.00 0.00 0.00 62 997.6
20200224202228 42 338 0.0 0.0 0.00 0.00 0.00 62 997.6
20200224201836 43 338 0.0 0.0 0.00 0.00 0.00 62 997.6
20200224201727 43 338 0.0 0.0 0.00 0.00 0.00 62 997.6
20200224200727 43 45 0.0 0.0 0.00 0.00 0.00 62 997.6
20200224200337 43 45 0.0 0.0 0.00 0.00 0.00 61 997.6
20200224195727 43 113 0.0 0.0 0.00 0.00 0.00 62 997.6
20200224195227 43 0 0.0 0.0 0.00 0.00 0.00 61 997.6
20200224194836 43 0 0.0 0.0 0.00 0.00 0.00 61 997.6
20200224194727 43 0 0.0 0.0 0.00 0.00 0.00 61 997.6
20200224194227 44 23 0.0 0.0 0.00 0.00 0.00 60 997.6
20200224193727 44 23 0.0 0.0 0.00 0.00 0.00 60 997.6
20200224193337 44 45 0.0 0.0 0.00 0.00 0.00 60 997.6
20200224192727 44 0 0.0 0.0 0.00 0.00 0.00 60 997.5
20200224192230 44 90 0.0 0.0 0.00 0.00 0.00 61 997.6
20200224191836 44 338 0.0 0.0 0.00 0.00 0.00 61 997.6
20200224191727 44 68 0.0 0.0 0.00 0.00 0.00 61 997.6
20200224191227 44 68 0.0 0.0 0.00 0.00 0.00 60 997.6
20200224190727 44 113 0.0 0.0 0.00 0.00 0.00 61 997.6
20200224190336 44 90 3.0 3.0 0.00 0.00 0.00 61 997.8
20200224185726 44 0 0.0 0.0 0.00 0.00 0.00 62 997.9
20200224185226 43 45 0.0 0.0 0.00 0.00 0.00 62 997.9
20200224184836 43 0 0.0 0.0 0.00 0.00 0.00 62 998.2
20200224184727 43 0 0.0 0.0 0.00 0.00 0.00 62 998.1
20200224184226 43 113 0.0 0.0 0.00 0.00 0.00 62 998.3
20200224183336 43 68 0.0 0.0 0.00 0.00 0.00 62 998.3
20200224182726 43 135 0.0 0.0 0.00 0.00 0.00 62 998.3
20200224181837 43 90 0.0 0.0 0.00 0.00 0.00 62 998.3
20200224181728 43 90 0.0 0.0 0.00 0.00 0.00 63 998.3
20200224181227 42 113 0.0 0.0 0.00 0.00 0.00 62 998.5
20200224180337 43 90 0.0 0.0 0.00 0.00 0.00 62 998.6
20200224180226 43 113 0.0 0.0 0.00 0.00 0.00 62 998.6
20200224175727 43 90 0.0 0.0 0.00 0.00 0.00 62 998.4
20200224175226 43 113 0.0 0.0 0.00 0.00 0.00 62 998.6
20200224174837 43 90 0.0 0.0 0.00 0.00 0.00 63 998.6
20200224174726 43 113 1.0 5.0 0.00 0.00 0.00 63 998.6
20200224174227 43 90 1.0 3.0 0.00 0.00 0.00 63 998.6
20200224173727 43 90 0.0 0.0 0.00 0.00 0.00 63 998.6
20200224173337 43 113 0.0 0.0 0.00 0.00 0.00 63 998.9
20200224173227 43 90 1.0 3.0 0.00 0.00 0.00 63 998.9
20200224172728 43 90 0.0 5.0 0.00 0.00 0.00 64 998.9
20200224171838 43 68 0.0 0.0 0.00 0.00 0.00 64 999.0
20200224171726 43 113 0.0 0.0 0.00 0.00 0.00 64 999.1
20200224170726 44 113 1.0 8.0 0.00 0.00 0.00 64 999.3
20200224170336 44 90 0.0 0.0 0.00 0.00 0.00 64 999.3
20200224165726 44 23 0.0 0.0 0.00 0.00 0.00 66 999.3
20200224165228 44 0 0.0 0.0 0.00 0.00 0.00 66 999.3
20200224164836 44 90 0.0 0.0 0.00 0.00 0.00 66 999.3
20200224164727 44 45 0.0 0.0 0.00 0.00 0.00 66 999.3
20200224164227 44 68 0.0 0.0 0.00 0.00 0.00 66 999.3
20200224163336 44 0 0.0 0.0 0.00 0.00 0.00 67 999.3
20200224163226 44 0 2.0 3.0 0.00 0.00 0.00 67 999.3
20200224162726 44 338 1.0 5.0 0.00 0.00 0.00 67 999.3
20200224161837 43 68 0.0 0.0 0.00 0.00 0.00 69 999.3
20200224161726 43 45 0.0 0.0 0.00 0.00 0.00 69 999.4
20200224161227 43 0 0.0 1.0 0.00 0.00 0.00 72 999.3
20200224160727 42 23 1.0 5.0 0.00 0.00 0.00 72 999.4
20200224160337 41 0 0.0 0.0 0.00 0.00 0.00 72 999.3
20200224155726 40 0 0.0 2.0 0.00 0.00 0.00 72 999.3
20200224155228 40 0 0.0 0.0 0.00 0.00 0.00 73 999.5
20200224154836 39 23 0.0 0.0 0.00 0.00 0.00 73 999.4
20200224154727 39 23 0.0 0.0 0.00 0.00 0.00 73 999.4
20200224153727 39 0 0.0 0.0 0.00 0.00 0.00 74 999.6
20200224153336 39 338 0.0 0.0 0.00 0.00 0.00 74 999.6
20200224153227 39 338 0.0 0.0 0.00 0.00 0.00 74 999.6
20200224152727 38 338 0.0 0.0 0.00 0.00 0.00 75 999.6
20200224152226 38 0 0.0 0.0 0.00 0.00 0.00 75 999.6
20200224151837 38 113 0.0 0.0 0.00 0.00 0.00 75 999.6
20200224151726 38 45 0.0 0.0 0.00 0.00 0.00 75 999.6
20200224151226 38 338 0.0 0.0 0.00 0.00 0.00 76 999.6
20200224150727 38 23 0.0 0.0 0.00 0.00 0.00 77 999.6
20200224150338 37 338 0.0 0.0 0.00 0.00 0.00 77 999.6
20200224150228 37 338 0.0 0.0 0.00 0.00 0.00 77 999.6
20200224145727 37 338 0.0 0.0 0.00 0.00 0.00 78 999.6
20200224145227 37 338 0.0 0.0 0.00 0.00 0.00 78 999.3
20200224144837 36 338 0.0 0.0 0.00 0.00 0.00 78 999.3
20200224144227 36 338 0.0 0.0 0.00 0.00 0.00 78 999.3
20200224143727 35 293 0.0 0.0 0.00 0.00 0.00 78 999.3
20200224143336 35 293 0.0 0.0 0.00 0.00 0.00 78 999.3
20200224142226 34 338 0.0 0.0 0.00 0.00 0.00 78 999.0
20200224141837 34 338 0.0 0.0 0.00 0.00 0.00 79 998.9
20200224141726 34 338 0.0 0.0 0.00 0.00 0.00 79 998.9
20200224141227 33 338 0.0 0.0 0.00 0.00 0.00 79 998.9
20200224140728 33 315 0.0 0.0 0.00 0.00 0.00 79 998.9
20200224140337 32 315 0.0 0.0 0.00 0.00 0.00 78 998.9
20200224140227 32 315 0.0 0.0 0.00 0.00 0.00 78 998.8
20200224135226 31 315 0.0 0.0 0.00 0.00 0.00 78 998.6
20200224134836 31 315 0.0 0.0 0.00 0.00 0.00 78 998.6
20200224134727 31 315 0.0 0.0 0.00 0.00 0.00 78 998.6
20200224134226 31 315 0.0 0.0 0.00 0.00 0.00 78 998.6
20200224133728 30 315 0.0 0.0 0.00 0.00 0.00 78 998.3
20200224133336 30 315 0.0 0.0 0.00 0.00 0.00 78 998.3
20200224133228 30 315 0.0 0.0 0.00 0.00 0.00 78 998.3
20200224132226 29 315 0.0 0.0 0.00 0.00 0.00 77 998.3
20200224131837 29 315 0.0 0.0 0.00 0.00 0.00 77 998.3
20200224130727 29 315 0.0 0.0 0.00 0.00 0.00 77 998.3
20200224130336 29 315 0.0 0.0 0.00 0.00 0.00 77 998.3
20200224125226 29 315 0.0 0.0 0.00 0.00 0.00 77 997.9
20200224124837 29 315 0.0 0.0 0.00 0.00 0.00 77 997.9
20200224124726 29 315 0.0 0.0 0.00 0.00 0.00 77 997.9
20200224124227 29 315 0.0 0.0 0.00 0.00 0.00 76 997.8
20200224123727 29 315 0.0 0.0 0.00 0.00 0.00 76 997.9
20200224123338 29 315 0.0 0.0 0.00 0.00 0.00 76 997.9
20200224123227 29 315 0.0 0.0 0.00 0.00 0.00 76 997.9
20200224122728 29 315 0.0 0.0 0.00 0.00 0.00 76 997.9
20200224122227 29 315 0.0 0.0 0.00 0.00 0.00 76 997.9
20200224121836 29 315 0.0 0.0 0.00 0.00 0.00 76 997.8
20200224121727 29 315 0.0 0.0 0.00 0.00 0.00 76 997.9
20200224120726 30 315 0.0 0.0 0.00 0.00 0.00 76 997.8
20200224120337 30 315 0.0 0.0 0.00 0.00 0.00 76 997.9
20200224115727 30 315 0.0 0.0 0.00 0.00 0.00 76 997.9
20200224115226 30 315 0.0 0.0 0.00 0.00 0.00 76 997.9
20200224114837 30 315 0.0 0.0 0.00 0.00 0.00 76 997.9
20200224114228 30 315 0.0 0.0 0.00 0.00 0.00 76 997.6
20200224113727 30 315 0.0 0.0 0.00 0.00 0.00 76 997.6
20200224113336 30 315 0.0 0.0 0.00 0.00 0.00 76 997.6
20200224112227 30 293 0.0 0.0 0.00 0.00 0.00 76 997.6
20200224111837 30 270 0.0 0.0 0.00 0.00 0.00 75 997.6
20200224110728 31 270 0.0 0.0 0.00 0.00 0.00 75 997.6
20200224110336 31 270 0.0 0.0 0.00 0.00 0.00 75 997.4
20200224105727 31 270 0.0 0.0 0.00 0.00 0.00 75 997.4
20200224105226 31 248 0.0 0.0 0.00 0.00 0.00 75 997.6
20200224104837 31 248 0.0 0.0 0.00 0.00 0.00 75 997.6
20200224103726 31 248 0.0 0.0 0.00 0.00 0.00 75 997.3
20200224103336 31 248 0.0 0.0 0.00 0.00 0.00 75 997.3
20200224103227 31 248 0.0 0.0 0.00 0.00 0.00 75 997.5
20200224102727 31 248 0.0 0.0 0.00 0.00 0.00 75 997.2
20200224102227 32 248 0.0 0.0 0.00 0.00 0.00 74 997.2